Date,TemperatureHighF,TemperatureAvgF,TemperatureLowF,DewpointHighF,DewpointAvgF,DewpointLowF,HumidityHigh,HumidityAvg,HumidityLow,PressureMaxIn,PressureMinIn,WindSpeedMaxMPH,WindSpeedAvgMPH,GustSpeedMaxMPH,PrecipitationSumIn
2013-1-1,37,37,37,31,31,31,79,79,79,0.00,40.00,1,1,2,0.00
2013-1-2,38,32,25,27,25,22,96,76,58,0.00,40.00,4,1,6,0.00
2013-1-3,40,28,20,24,21,16,96,76,41,0.00,40.00,4,1,10,0.00
2013-1-4,45,29,15,23,18,14,96,69,34,0.00,40.00,8,3,14,0.00
2013-1-5,49,32,17,32,20,16,96,67,29,0.00,40.00,4,1,8,0.03
2013-1-6,52,38,24,32,29,24,99,71,36,0.00,40.00,5,1,11,0.03
2013-1-7,46,37,22,32,26,21,97,67,45,0.00,40.00,7,2,13,0.01
2013-1-8,53,33,19,33,26,17,98,80,43,0.00,40.00,7,2,12,0.00
2013-1-9,59,40,22,46,34,22,98,80,32,0.00,40.00,8,2,14,0.00
2013-1-10,58,43,27,33,28,25,95,60,29,0.00,40.00,6,1,13,0.00
2013-1-11,45,38,29,42,35,28,100,89,61,0.00,40.00,8,2,13,0.02
2013-1-12,52,44,40,45,43,40,100,96,76,0.00,40.00,3,1,7,0.02
2013-1-13,58,49,43,57,49,43,100,100,96,0.00,40.00,4,1,8,0.00
2013-1-14,62,53,39,58,48,36,100,84,62,0.00,40.00,9,4,19,0.15
2013-1-15,39,37,36,37,37,36,100,98,91,0.00,40.00,6,3,13,0.89
2013-1-16,41,38,34,40,37,34,100,99,92,0.00,40.00,10,2,19,0.71
2013-1-17,43,40,35,42,37,30,100,90,64,0.00,40.00,4,2,8,0.05
2013-1-18,44,35,26,31,19,9,95,57,24,0.00,40.00,7,3,16,0.01
2013-1-19,54,40,28,29,26,22,87,59,36,0.00,40.00,11,7,19,0.00
2013-1-20,34,34,34,16,16,16,46,46,46,0.00,40.00,1,1,3,0.00
2013-1-21,36,36,36,8,8,8,30,30,30,0.00,40.00,1,1,3,0.00
2013-1-22,27,20,10,6,-4,-10,78,38,19,0.00,40.00,9,4,19,0.00
2013-1-23,29,18,4,15,2,-4,91,56,26,0.00,40.00,8,2,15,0.01
2013-1-24,27,19,7,18,8,-1,96,69,30,0.00,40.00,9,4,23,0.07
2013-1-25,23,17,6,18,10,4,92,77,48,0.00,40.00,9,3,15,0.01
2013-1-26,36,28,22,25,21,18,88,77,59,0.00,40.00,4,2,9,0.01
2013-1-27,38,31,26,25,20,15,91,67,49,0.00,40.00,7,2,13,0.00
2013-1-28,50,38,31,41,33,22,99,85,71,0.00,40.00,11,5,19,0.18
2013-1-29,73,55,34,54,46,34,100,75,50,0.00,40.00,7,3,13,0.01
2013-1-30,71,62,50,62,57,47,100,84,70,0.00,40.00,14,7,31,2.65
2013-1-31,56,40,29,56,19,11,100,44,31,0.00,40.00,13,6,26,3.16
2013-2-1,32,27,13,27,8,-1,87,47,27,0.00,40.00,12,5,25,0.01
2013-2-2,32,22,10,26,14,7,97,74,38,0.00,40.00,10,2,17,0.01
2013-2-3,36,29,23,27,24,12,99,82,42,0.00,40.00,9,2,22,0.01
2013-2-4,37,30,17,19,15,9,87,53,39,0.00,40.00,9,4,15,0.01
2013-2-5,49,37,26,31,25,19,95,64,46,0.00,40.00,6,2,12,0.00
2013-2-6,53,38,25,31,27,22,98,70,33,0.00,40.00,7,2,14,0.00
2013-2-7,40,33,22,28,24,21,97,72,49,0.00,40.00,3,1,7,0.00
2013-2-8,47,38,32,39,32,21,100,80,50,0.00,40.00,8,3,21,0.18
2013-2-9,47,36,20,22,15,8,89,46,21,0.00,40.00,11,5,22,0.01
2013-2-10,44,30,14,24,17,13,96,63,31,0.00,40.00,8,2,15,0.01
2013-2-11,58,46,35,49,40,18,100,82,22,0.00,40.00,9,5,18,0.09
2013-2-12,60,49,29,30,24,18,87,41,22,0.00,40.00,7,3,16,0.01
2013-2-13,43,36,28,36,30,26,100,82,57,0.00,40.00,5,2,11,0.11
2013-2-14,51,36,23,35,26,22,100,75,33,0.00,40.00,6,2,11,0.11
2013-2-15,60,41,23,38,30,22,98,72,33,0.00,40.00,9,3,17,0.04
2013-2-16,39,35,29,36,26,12,100,72,43,0.00,40.00,8,4,17,0.04
2013-2-17,31,26,21,20,7,0,89,45,27,0.00,40.00,10,6,23,0.02
2013-2-18,46,29,10,21,10,4,92,51,20,0.00,40.00,8,3,15,0.01
2013-2-19,45,39,28,39,28,20,92,66,41,0.00,40.00,9,5,17,0.07
2013-2-20,44,36,23,15,12,10,70,39,26,0.00,40.00,9,4,16,0.00
2013-2-21,43,31,17,17,14,11,88,53,31,0.00,40.00,7,3,15,0.00
2013-2-22,35,32,28,28,22,15,82,66,52,0.00,40.00,5,2,8,0.01
2013-2-23,50,38,33,41,34,28,99,87,69,0.00,40.00,4,2,8,0.01
2013-2-24,56,43,32,40,31,19,100,69,27,0.00,40.00,11,4,21,0.00
2013-2-25,45,32,20,22,19,16,89,60,33,0.00,40.00,7,2,12,0.00
2013-2-26,41,33,22,41,31,20,100,93,70,0.00,40.00,6,3,13,0.55
2013-2-27,56,46,34,41,36,30,100,74,38,0.00,40.00,10,3,19,0.39
2013-2-28,47,40,29,34,27,22,96,62,38,0.00,40.00,8,3,17,0.01
2013-3-1,43,39,30,27,24,21,75,55,45,0.00,40.00,8,4,17,0.00
2013-3-2,37,30,19,25,20,17,97,66,44,0.00,40.00,6,2,12,0.00
2013-3-3,44,31,20,24,17,14,92,57,34,0.00,40.00,8,3,16,0.00
2013-3-4,49,32,19,19,13,9,83,49,21,0.00,40.00,7,3,14,0.00
2013-3-5,51,38,24,32,21,12,100,55,24,0.00,40.00,7,2,15,0.09
2013-3-6,33,32,32,33,32,32,100,97,100,0.00,40.00,7,4,15,0.36
2013-3-8,46,41,33,27,25,21,69,52,43,0.00,40.00,13,7,24,0.00
2013-3-9,59,40,25,28,23,17,96,58,20,0.00,40.00,7,2,13,0.00
2013-3-10,63,44,23,30,26,22,98,58,22,0.00,40.00,8,3,17,0.00
2013-3-11,59,47,35,49,39,26,94,75,50,0.00,40.00,8,2,15,0.01
2013-3-12,61,54,34,56,47,31,100,78,48,0.00,40.00,9,4,18,1.65
2013-3-13,50,38,26,32,24,15,100,64,28,0.00,40.00,9,4,21,0.01
2013-3-14,48,38,27,17,14,11,65,39,23,0.00,40.00,10,4,25,0.00
2013-3-15,59,39,21,34,24,15,93,59,30,0.00,40.00,12,4,20,0.00
2013-3-16,64,45,32,51,40,30,100,84,59,0.00,40.00,10,3,18,0.09
2013-3-17,40,35,31,36,33,30,100,94,76,0.00,40.00,5,2,12,0.22
2013-3-18,33,32,31,33,32,31,100,99,96,0.00,40.00,4,1,8,0.48
2013-3-19,60,44,31,42,24,1,100,59,14,0.00,40.00,11,5,27,0.20
2013-3-20,53,42,26,23,12,1,72,32,15,0.00,40.00,11,4,22,0.00
2013-3-21,39,33,25,28,14,6,84,49,28,0.00,40.00,8,5,19,0.00
2013-3-22,51,35,22,23,14,8,77,44,23,0.00,40.00,7,3,16,0.00
2013-3-23,56,37,19,26,20,13,97,59,21,0.00,40.00,6,2,12,0.00
2013-3-24,40,34,27,32,25,18,100,73,43,0.00,40.00,6,2,12,0.13
2013-3-25,38,34,31,35,33,31,100,96,85,0.00,40.00,3,1,6,0.28
2013-3-26,47,38,28,36,28,24,100,72,42,0.00,40.00,7,3,18,0.11
2013-3-27,49,41,28,27,24,21,82,52,34,0.00,40.00,10,5,24,0.00
2013-3-28,53,39,26,29,25,23,92,61,35,0.00,40.00,10,4,22,0.00
2013-3-29,57,42,30,32,27,20,91,61,24,0.00,40.00,7,2,13,0.00
2013-3-30,62,42,25,34,26,24,97,62,24,0.00,40.00,7,2,14,0.00
2013-3-31,52,42,33,47,38,-100,99,88,78,0.00,40.00,6,1,13,0.04
2013-4-1,66,47,30,44,34,22,100,66,34,0.00,40.00,11,4,22,0.03
2013-4-2,53,40,24,26,14,2,90,41,13,0.00,40.00,9,4,20,0.01
2013-4-3,55,38,19,22,14,8,92,47,15,0.00,40.00,9,4,17,0.00
2013-4-4,47,35,20,35,18,9,99,56,22,0.00,40.00,9,3,16,0.15
2013-4-5,67,49,35,41,32,24,100,62,21,0.00,40.00,8,3,17,0.30
2013-4-6,58,47,36,28,20,15,59,35,20,0.00,40.00,8,4,15,0.02
2013-4-7,72,54,32,42,35,27,86,51,33,0.00,40.00,12,6,22,0.00
2013-4-8,81,66,44,47,44,41,92,49,28,0.00,40.00,11,4,18,0.00
2013-4-9,85,72,51,54,51,48,90,52,32,0.00,40.00,10,4,17,0.00
2013-4-10,83,69,61,54,52,51,77,56,37,0.00,40.00,8,4,15,0.00
2013-4-11,86,81,71,59,55,51,59,43,31,0.00,40.00,9,5,18,0.00
2013-4-12,81,65,55,64,53,38,100,72,32,0.00,40.00,7,3,15,2.71
2013-4-13,71,58,39,42,36,27,95,48,22,0.00,40.00,9,4,17,0.04
2013-4-14,71,54,35,46,38,33,95,57,30,0.00,40.00,6,3,11,0.00
2013-4-15,62,56,50,54,50,45,99,82,65,0.00,40.00,5,1,11,0.07
2013-4-16,73,62,53,58,56,52,99,82,59,0.00,40.00,9,3,17,0.02
2013-4-17,81,68,56,61,59,56,98,73,48,0.00,40.00,8,3,13,0.01
2013-4-18,78,65,59,64,59,56,99,81,48,0.00,40.00,9,3,19,0.22
2013-4-19,76,67,59,67,61,57,99,81,64,0.00,40.00,11,6,24,0.54
2013-4-20,62,53,40,58,31,24,98,47,25,0.00,40.00,7,4,17,0.54
2013-4-21,55,46,35,33,26,21,91,48,30,0.00,40.00,10,4,17,0.00
2013-4-22,57,44,30,38,33,29,100,68,40,0.00,40.00,8,4,17,0.00
2013-4-23,62,50,43,46,40,36,98,70,51,0.00,40.00,6,3,11,0.00
2013-4-24,78,59,39,56,48,39,100,72,40,0.00,40.00,13,5,25,0.00
2013-4-25,66,55,42,56,34,28,89,48,26,0.00,40.00,9,4,18,0.00
2013-4-26,68,52,33,44,37,32,100,63,31,0.00,40.00,6,2,13,0.00
2013-4-27,72,56,39,46,42,39,99,64,33,0.00,40.00,6,2,13,0.00
2013-4-28,58,52,41,51,46,-100,99,83,58,0.00,40.00,6,2,14,0.03
2013-4-29,62,55,52,59,54,49,100,96,82,0.00,40.00,5,2,10,0.17
2013-4-30,61,56,54,57,54,53,98,93,79,0.00,40.00,7,4,14,0.09
2013-5-1,71,60,52,54,44,35,98,63,26,0.00,40.00,7,4,15,0.07
2013-5-2,69,53,36,48,43,36,100,74,37,0.00,40.00,7,3,14,0.01
2013-5-3,69,53,37,49,43,37,100,75,36,0.00,40.00,8,3,16,0.00
2013-5-4,67,52,37,47,43,37,100,73,41,0.00,40.00,7,3,14,0.00
2013-5-5,64,50,34,46,41,34,100,75,43,0.00,40.00,9,3,15,0.00
2013-5-6,60,54,49,58,52,46,98,93,77,0.00,40.00,7,4,19,0.15
2013-5-7,64,59,54,62,58,54,100,98,92,0.00,40.00,9,5,19,1.52
2013-5-8,66,57,53,58,55,53,100,94,68,0.00,40.00,6,2,14,1.04
2013-5-9,78,60,47,63,54,47,100,84,43,0.00,40.00,4,1,10,0.23
2013-5-10,84,66,49,65,54,-100,100,74,37,0.00,40.00,8,3,20,0.24
2013-5-11,80,68,60,64,61,56,100,82,44,0.00,40.00,9,4,16,0.42
2013-5-12,65,57,40,62,40,-100,100,60,25,0.00,40.00,8,4,17,0.17
2013-5-13,61,47,33,41,32,23,100,63,25,0.00,40.00,8,3,17,0.00
2013-5-14,68,50,30,49,36,30,100,66,29,0.00,40.00,7,2,13,0.00
2013-5-15,87,65,44,64,54,44,100,71,44,0.00,40.00,10,3,18,0.00
2013-5-16,86,66,58,65,35,-100,92,65,38,0.00,40.00,6,2,14,0.00
2013-5-17,82,69,56,63,51,-100,99,69,36,0.00,40.00,5,2,12,0.00
2013-5-18,69,62,60,61,59,57,100,89,74,0.00,40.00,5,2,10,0.06
2013-5-19,71,63,59,66,62,59,100,95,79,0.00,40.00,6,1,14,0.24
2013-5-20,81,71,64,69,66,64,100,88,62,0.00,40.00,6,2,12,0.17
2013-5-21,85,73,65,71,68,65,100,86,60,0.00,40.00,6,2,11,0.09
2013-5-22,88,75,65,71,68,62,100,81,51,0.00,40.00,8,4,16,0.02
2013-5-23,80,70,62,70,66,61,100,86,64,0.00,40.00,7,3,14,0.26
2013-5-24,62,58,42,62,47,33,100,72,42,0.00,40.00,11,4,24,0.28
2013-5-25,67,52,36,40,34,31,98,54,27,0.00,40.00,8,4,21,0.01
2013-5-26,74,55,37,44,36,27,100,58,18,0.00,40.00,6,2,15,0.00
2013-5-27,68,55,38,55,46,38,100,75,36,0.00,40.00,4,1,6,0.01
2013-5-28,83,62,48,70,59,48,100,90,54,0.00,40.00,10,2,24,0.54
2013-5-29,88,76,61,67,64,61,100,70,45,0.00,40.00,8,4,15,0.54
2013-5-30,89,76,61,72,65,61,99,71,44,0.00,40.00,5,2,11,0.00
2013-5-31,89,76,59,66,63,59,100,69,43,0.00,40.00,10,3,19,0.00
2013-6-1,89,79,64,68,65,62,93,65,47,0.00,40.00,9,4,18,0.00
2013-6-2,81,75,69,74,66,-100,89,74,59,0.00,40.00,8,4,18,0.04
2013-6-3,82,72,66,69,67,58,100,85,58,0.00,40.00,7,2,15,0.18
2013-6-4,76,65,53,61,50,38,98,62,32,0.00,40.00,8,2,18,0.02
2013-6-5,78,66,51,63,56,51,100,74,48,0.00,40.00,6,1,12,0.00
2013-6-6,67,62,57,65,60,54,100,92,70,0.00,40.00,4,1,6,0.93
2013-6-7,69,66,63,67,65,63,100,98,90,0.00,40.00,8,2,15,1.32
2013-6-8,82,70,59,67,63,59,100,83,52,0.00,40.00,4,1,10,0.15
2013-6-9,81,70,59,71,65,59,100,88,67,0.00,40.00,4,2,11,1.14
2013-6-10,82,72,67,74,70,67,100,94,71,0.00,40.00,9,2,19,1.86
2013-6-11,85,74,64,69,64,60,98,76,46,0.00,40.00,6,2,17,0.31
2013-6-12,89,74,32,74,64,32,98,73,45,0.00,40.00,6,2,17,0.00
2013-6-13,84,78,71,69,65,57,79,65,56,0.00,40.00,7,3,18,0.00
2013-6-14,79,74,61,58,54,51,87,49,39,0.00,40.00,10,3,19,0.00
2013-6-15,84,78,61,62,57,53,90,51,36,0.00,40.00,4,1,9,0.00
2013-6-16,85,79,63,68,64,59,95,61,50,0.00,40.00,7,4,14,0.00
2013-6-17,87,81,71,68,67,65,85,62,49,0.00,40.00,4,2,8,0.00
2013-6-18,74,70,62,70,67,62,100,90,78,0.00,40.00,6,1,11,0.23
2013-6-19,77,68,59,66,62,59,100,85,59,0.00,40.00,7,2,14,0.02
2013-6-20,78,68,63,65,62,54,100,84,52,0.00,40.00,4,1,11,0.01
2013-6-22,87,80,73,69,67,65,88,66,49,0.00,40.00,6,2,15,0.00
2013-6-23,87,75,66,71,69,66,100,82,58,0.00,40.00,4,1,9,0.03
2013-7-1,82,79,75,72,72,70,90,79,66,0.00,40.00,4,2,10,0.00
2013-7-2,78,74,71,73,72,69,97,91,79,0.00,40.00,6,3,14,0.06
2013-7-3,83,75,71,75,72,71,100,93,71,0.00,40.00,6,1,14,1.00
2013-7-4,88,79,71,74,72,70,100,82,58,0.00,40.00,6,3,14,0.02
2013-7-5,88,79,70,73,72,70,99,79,58,0.00,40.00,8,3,18,0.00
2013-7-6,89,79,70,74,71,69,100,79,53,0.00,40.00,8,2,15,0.00
2013-7-7,88,77,69,75,71,69,100,83,59,0.00,40.00,8,2,19,0.56
2013-7-8,85,73,67,73,69,64,100,88,50,0.00,40.00,5,0,13,0.63
2013-7-9,86,76,67,75,70,67,100,84,57,0.00,40.00,3,0,8,0.04
2013-7-10,88,76,72,76,71,-100,100,86,60,0.00,40.00,9,1,20,0.01
2013-7-11,85,76,72,73,71,67,99,85,54,0.00,40.00,5,1,12,0.03
2013-7-12,74,68,65,73,67,64,100,95,82,0.00,40.00,6,2,16,1.00
2013-7-13,83,73,61,74,68,61,100,85,60,0.00,40.00,2,0,6,0.03
2013-7-14,88,78,70,74,72,69,100,83,54,0.00,40.00,4,1,11,0.00
2013-7-15,92,78,67,78,71,67,100,83,48,0.00,40.00,2,0,7,0.00
2013-7-16,92,80,68,79,73,68,100,81,54,0.00,40.00,6,1,15,0.00
2013-7-17,92,80,70,77,73,70,100,83,49,0.00,40.00,5,1,13,0.00
2013-7-18,95,83,70,79,75,70,100,78,54,0.00,40.00,5,0,10,0.00
2013-7-19,94,81,72,78,75,72,100,84,53,0.00,40.00,4,1,8,0.02
2013-7-20,92,82,71,76,72,69,98,75,52,0.00,40.00,6,2,17,0.02
2013-7-21,89,76,67,76,71,67,100,86,53,0.00,40.00,4,0,15,0.57
2013-7-22,86,77,71,75,72,71,100,87,65,0.00,40.00,4,1,9,0.57
2013-7-23,90,79,71,73,71,65,100,78,47,0.00,40.00,4,0,12,0.00
2013-7-24,82,74,66,71,67,60,100,78,55,0.00,40.00,6,2,13,0.00
2013-7-25,79,70,59,61,57,53,100,65,51,0.00,40.00,7,2,16,0.00
2013-7-26,84,68,53,67,59,53,100,78,45,0.00,40.00,3,0,10,0.00
2013-7-27,80,72,62,71,67,62,100,87,67,0.00,40.00,7,1,14,0.11
2013-7-28,84,74,68,71,68,66,100,85,56,0.00,40.00,6,1,13,0.11
2013-7-29,82,70,59,68,60,50,100,77,39,0.00,40.00,5,0,12,0.02
2013-7-30,82,70,57,66,60,57,100,76,44,0.00,40.00,3,0,9,0.00
2013-7-31,81,69,60,71,65,60,100,87,65,0.00,40.00,3,0,8,0.07
2013-8-1,83,71,67,71,68,66,100,93,63,0.00,40.00,4,1,10,1.02
2013-8-2,85,73,60,70,65,60,100,80,46,0.00,40.00,4,1,11,0.02
2013-8-3,81,71,63,72,67,63,100,89,59,0.00,40.00,0,0,4,0.01
2013-8-4,80,70,59,69,60,54,100,76,43,0.00,40.00,7,1,16,0.01
2013-8-5,79,66,53,66,58,53,100,79,47,0.00,40.00,4,0,8,0.00
2013-8-6,77,69,65,68,66,65,100,90,71,0.00,40.00,2,0,10,0.11
2013-8-7,84,75,68,72,70,67,100,85,63,0.00,40.00,7,2,15,0.01
2013-8-8,82,75,71,74,72,70,100,89,72,0.00,40.00,7,1,12,0.03
2013-8-9,92,80,72,76,73,72,100,83,54,0.00,40.00,9,2,19,0.02
2013-8-10,81,74,69,73,70,63,100,88,58,0.00,40.00,3,0,7,0.45
2013-8-11,82,75,69,73,70,66,100,84,63,0.00,40.00,3,0,8,0.05
2013-8-21,85,74,64,74,69,64,100,87,60,0.00,40.00,5,1,16,0.26
2013-8-22,87,75,66,71,68,64,100,82,53,0.00,40.00,5,0,12,0.26
2013-8-23,72,66,60,69,66,60,100,97,79,0.00,40.00,7,0,14,0.98
2013-8-24,80,66,54,63,58,54,100,80,40,0.00,40.00,5,1,13,0.01
2013-8-25,81,66,56,65,59,-100,100,81,49,0.00,40.00,1,0,5,0.00
2013-8-26,85,71,58,67,62,58,100,77,45,0.00,40.00,3,0,11,0.00
2013-8-27,89,72,63,73,67,63,100,86,56,0.00,40.00,4,0,8,0.01
2013-9-24,74,56,43,58,49,43,100,80,47,0.00,40.00,1,0,7,0.00
2013-9-25,73,57,43,58,50,43,100,81,40,0.00,40.00,2,0,7,0.00
2013-9-26,74,61,51,56,53,47,100,78,39,0.00,40.00,2,0,9,0.00
2013-9-27,72,58,45,60,53,45,100,85,57,0.00,40.00,3,0,8,0.00
2013-9-28,66,59,51,58,55,51,100,88,61,0.00,40.00,3,0,8,0.00
2013-9-29,73,58,46,56,50,-100,100,81,40,0.00,40.00,2,0,12,0.00
2013-9-30,76,58,44,59,52,44,100,83,49,0.00,40.00,2,0,8,0.00
2013-10-30,70,55,44,56,50,43,99,86,60,0.00,40.00,1,0,6,0.02
2013-10-31,68,59,49,59,54,49,100,87,70,0.00,40.00,8,2,18,0.01
2013-11-1,76,68,54,62,57,47,100,71,35,0.00,40.00,11,4,26,0.05
2013-11-2,69,56,42,55,44,34,100,68,32,0.00,40.00,7,2,16,0.01
2013-11-3,57,48,31,39,29,-100,94,55,26,0.00,40.00,11,4,22,0.00
2013-11-4,46,37,29,29,24,19,91,62,36,0.00,40.00,8,3,15,0.00
2013-11-5,54,42,28,43,34,28,99,75,47,0.00,40.00,2,1,5,0.00
2013-11-6,67,59,48,50,48,43,91,69,52,0.00,40.00,9,4,15,0.00
2013-11-7,62,55,43,57,44,25,96,69,45,0.00,40.00,10,5,18,0.04
2013-11-8,52,42,28,33,24,20,92,52,30,0.00,40.00,10,4,18,0.01
2013-11-9,56,40,23,28,25,-100,98,61,32,0.00,40.00,11,4,19,0.00
2013-11-10,66,49,32,35,28,21,87,48,18,0.00,40.00,10,5,19,0.00
2013-11-11,59,50,28,32,27,24,94,44,26,0.00,40.00,9,4,17,0.00
2013-11-12,52,41,31,36,21,11,66,46,34,0.00,40.00,15,7,28,0.00
2013-11-20,45,35,27,27,24,20,94,66,36,0.00,40.00,8,3,14,0.00
2013-11-21,49,40,27,39,33,26,97,79,63,0.00,40.00,4,1,6,0.00
2013-11-22,66,56,45,54,48,38,90,74,59,0.00,40.00,10,4,16,0.00
2013-11-23,57,47,34,53,26,-100,94,48,23,0.00,40.00,10,6,23,0.00
2013-11-24,34,26,17,19,4,-1,75,39,25,0.00,40.00,13,6,25,0.00
2013-11-25,36,26,13,15,10,6,92,55,29,0.00,40.00,9,4,16,0.00
2013-11-26,39,34,31,39,27,10,100,79,34,0.00,40.00,7,3,13,0.37
2013-11-27,41,38,30,39,30,12,100,76,45,0.00,40.00,11,5,22,0.35
2013-11-28,40,29,19,24,16,10,95,61,36,0.00,40.00,7,2,17,0.01
2013-11-29,43,29,18,24,20,17,98,75,38,0.00,40.00,7,2,13,0.00
2013-11-30,39,26,17,24,19,-100,97,79,48,0.00,40.00,4,1,8,0.00
2013-12-1,51,32,18,31,24,17,97,77,40,0.00,40.00,4,0,7,0.00
2013-12-2,47,40,35,35,33,31,91,78,54,0.00,40.00,4,0,6,0.00
2013-12-3,54,40,30,38,34,30,100,84,52,0.00,40.00,4,0,7,0.00
2013-12-4,61,46,32,50,42,32,99,85,64,0.00,40.00,6,1,11,0.00
2013-12-5,64,58,51,62,56,50,100,91,80,0.00,40.00,9,4,17,0.01
2013-12-6,66,51,40,64,50,38,100,95,84,0.00,40.00,11,6,22,0.39
2013-12-7,42,37,31,38,30,-100,96,77,58,0.00,40.00,10,5,19,0.24
2013-12-8,31,29,26,30,24,18,99,83,63,0.00,40.00,7,1,13,0.04
2013-12-9,35,33,31,35,32,30,100,99,96,0.00,40.00,4,0,7,0.06
2013-12-10,37,32,25,35,30,19,100,91,50,0.00,40.00,6,0,19,0.11
2013-12-27,53,33,19,23,20,17,97,67,25,0.00,40.00,2,0,10,0.00
2013-12-28,59,43,21,28,22,-100,97,50,24,0.00,40.00,7,1,14,0.00
2013-12-29,53,44,36,49,40,25,100,88,42,0.00,40.00,6,0,16,0.71
2013-12-30,47,38,32,40,32,25,100,81,53,0.00,40.00,5,0,12,0.01
2013-12-31,47,34,25,28,23,13,93,66,31,0.00,40.00,11,1,23,0.00
2014-1-1,49,33,22,26,23,19,96,71,38,0.00,40.00,2,0,9,0.00
2014-1-2,37,31,26,32,28,24,100,89,66,0.00,40.00,0,0,3,0.09